Starlink 31414

operational
NORAD ID: 59418 Int'l Des: 2024-064 Owner: SPXS Country: US Constellation: starlink
LEOCIRCULAR

Starlink 31414について

説明を読み込み中...

リアルタイム位置

3D地球を読み込み中...

次回通過

高度履歴

Altitude vs Time

uPlot chart will show altitude changes over time

軌道要素

1 59418U 24064W 25260.21058377 -.00004366 00000-0 -14932-3 0 9994
2 59418 43.0000 315.9535 0000988 258.4997 101.5743 15.27560395 82695
Epoch: Sep 17, 2025 • Age: 14 hours

現在のステータス

高度 483.2 km
速度 7.63 km/s
衛星直下点 22.68°N, 52.18°E
打ち上げ日 Apr 5, 2024
運用期間 1.4 years
タイプ internet

技術仕様

分類 Payload
質量 730.00 kg
乾燥質量 700.00 kg
総質量 730.00 kg
長さ 0.30 m
直径 4.10 m
スパン 29.00 m
形状 Box + pan
製造者 SPXS
バスタイプ Starlink V2M
フェーズステータス In Orbit
所有者/国 SPXS/US

大規模コンステレーション

Loading constellations...